User: anonymous   Login
Location: Friaudour
(46.0460°N, 1.2873°E)
Time: 09:54:08
(UTC+00:00)
Language:

Cosmos 1833 Rocket - Orbit

View from above orbital plane
View from above orbital plane
View from above satellite
View from above satellite

Ground track
Ground track

The orbit data is extracted from the following two-line orbital elements,

1 17590U 87027B   20269.94541637 -.00000171 +00000-0 -61197-4 0  9993
2 17590 071.0024 149.7797 0007342 275.8282 084.2005 14.16787214733397
Epoch (UTC): 25 September 2020 22:41:23
Eccentricity: 0.0007342
inclination: 71.0024°
perigee height: 831 km
apogee height: 841 km
right ascension of ascending node: 149.7797°
argument of perigee: 275.8282°
revolutions per day: 14.16787214
mean anomaly at epoch: 84.2005°
orbit number at epoch: 73339

The dashed part of the orbit path shows where the satellite is in the earth's shadow,  

DLR